104  
ASHW40 PHFO 170443  
RWRHI  
 
WEATHER ROUNDUP FOR HAWAII  
NATIONAL WEATHER SERVICE HONOLULU HI  
600 PM HST TUE JUL 16 2019  
 
THIS IS AN AUTOMATED REPORT THAT HAS NOT BEEN QUALITY CONTROLLED.  
 
NOTE..."FAIR" INDICATES FEW OR NO CLOUDS BELOW 12,000 FEET WITH NO  
SIGNIFICANT WEATHER AND/OR S TO VISIBILITY
.  
 
* - THESE SITES REPORT LIMITED FIELDS  
# - BUOY DATA PROVIDED BY PACIFIC ISLANDS OCEAN OBSERVING SYSTEM.  
 
HIZ001>004-170500-  
KAUAI-NIIHAU-  
 
CITY SKY/WX TMP DP RH WIND PRES REMARKS
 
LIHUE APT MOSUNNY 82 73 74 E17 29.96S  
PORT ALLEN* N/A 84 N/A N/A E18G25 N/A  
POIPU* N/A 82 N/A N/A NE9G21 N/A  
PRINCEVILLE* NOT AVBL  
KOKOLE POINT* NOT AVBL  
MOLOAA DAIRY* N/A 79 72 78 E8G15 N/A  
WAIMEA HTS* N/A 81 68 65 E12 N/A  
PUU OPAE* N/A 73 70 88 CALM N/A  
PUU LUA* NOT AVBL  
MAKAHA RIDGE* N/A 73 70 88 MISG N/A  

 
 
HIZ005>011-170500-  
OAHU-  
 
CITY SKY/WX TMP DP RH WIND PRES REMARKS
 
HONOLULU MOSUNNY 86 69 56 E16 29.93R HX 90  
KALAELOA NOT AVBL  
KANEOHE MCB PTSUNNY 77 73 87 E12 29.93R  
WHEELER FIELD FAIR 82 70 66 E13 29.95R  
BELLOWS* N/A N/A N/A N/A NE16 N/A  
KAHUKU* N/A N/A N/A N/A NE9G18 N/A  
WHEELER* N/A N/A N/A N/A E5G10 N/A  
WAIANAE HARBOR N/A N/A N/A N/A E5G15 N/A  
DILLINGHAM* N/A 88 75 66 NE9G18 N/A HX 97  
KAHUKU TRN* N/A 86 81 84 E9G20 N/A HX 102  
KAWAILOA* N/A 75 70 83 E12G23 N/A  
KII* N/A 81 75 83 E20 N/A  
MAKUA RANGE* N/A 88 66 48 E5 N/A HX 90  
OAHU FOREST NW NOT AVBL  
SCHOFIELD BRK* N/A 81 66 61 E7 N/A  
SCHOFIELD S* NOT AVBL  
WAIANAE VLY* NOT AVBL  
KUAOKALA* NOT AVBL  
HONOULIUULI* NOT AVBL  
MOKUOLOE IS* N/A 81 N/A N/A E6G12 N/A  
PALEHUA* N/A 72 64 78 NE10 N/A  
WAIAWA PHB* NOT AVBL  

 
 
HIZ012>013-170500-  
MOLOKAI-  
 
CITY SKY/WX TMP DP RH WIND PRES REMARKS
 
MOLOKAI AIRPT PTSUNNY 80 74 81 NE14G26 29.95R  
KALAUPAPA NOT AVBL  
MAKAPULAPAI* NOT AVBL  
MOLOKAI 1* NOT AVBL  
PUU ALII* N/A 67 67 99 N1 N/A  

 
 
HIZ016-170500-  
KAHOOLAWE-  
 
CITY SKY/WX TMP DP RH WIND PRES REMARKS
 
KAHOOLAWE* NOT AVBL  
HAKIOAWA* N/A 75 70 85 MISG 30.37R  
HONOKANAIA* NOT AVBL  
KANELOA* N/A 81 70 69 E18G29 29.99S  
KEALIALALO* NOT AVBL  
LUA MAKIKA* NOT AVBL  

 
 
HIZ014>015-170500-  
LANAI-  
 
CITY SKY/WX TMP DP RH WIND PRES REMARKS
 
LANAI CITY FAIR 75 75 100 NE18G28 29.99R  
LANAI 1* NOT AVBL  

 
 
HIZ017>028-170500-  
MAUI-  
 
CITY SKY/WX TMP DP RH WIND PRES REMARKS
 
KAHULUI MOSUNNY 81 71 71 E23G31 29.92R  
KAPALUA-W MAUI LGT RAIN 77 73 88 NE17 29.94R  
HANA AIRPORT CLOUDY 77 73 88 SE3 29.99R  
HANA* NOT AVBL  
HALEAKALA SUMM N/A 50 50 100 N20 N/A  
MAALAEA BAY* N/A 81 N/A N/A N21G29 N/A  
HALEAKALA* NOT AVBL  
KAUPO GAP* NOT AVBL  
KULA 1* N/A 63 60 89 W3 N/A  

 
 
HIZ023>026-170500-  
BIG ISLAND OF HAWAII COAST AND LOWER SLOPES-  
 
CITY SKY/WX TMP DP RH WIND PRES REMARKS
 
KAILUA KONA MOSUNNY 84 72 67 SW8 29.89R  
HILO CLOUDY 79 72 78 E7 29.97R  
HONOKAA* NOT AVBL  
KAWAIHAE MWT* NOT AVBL  
KAWAIHAE* N/A 82 N/A N/A SW9 N/A  
SOUTH POINT* NOT AVBL  
UPOLU AIRPORT* NOT AVBL  
KAMUELA* NOT AVBL  
HAKALAU* N/A 60 59 97 SE3G9 N/A  
KALOKO-HONOKO* N/A 82 72 69 SW6 29.89S  
PALI 2* N/A 73 66 78 NE10 N/A  
KEALAKOMO* N/A 81 72 74 NE14G22 N/A  
KAUPULEHU* N/A 81 70 69 W9G15 N/A  
KAPAPALA* N/A 73 70 89 E7G14 N/A  
LOWER KAHUKU* N/A 81 81 100 NE2G12 N/A HX 91  
PUHE CS* N/A 88 75 66 SW3G9 N/A HX 97  
PUHO CS* N/A 84 74 71 W3 N/A HX 91  
PTA KEAMUKU* N/A 72 66 83 NE12 N/A  
WAIKOLOA* N/A 81 68 65 E13G18 N/A  

 
 
HIZ027>028-170500-  
BIG ISLAND OF HAWAII INTERIOR AND SUMMMITS-  
 
CITY SKY/WX TMP DP RH WIND PRES REMARKS
 
BRADSHAW FIELD SUNNY 67 54 61 S12 30.28S  
MK VISITOR CEN N/A 52 39 62 E3 N/A  
MAUNA KEA* N/A 41 19 42 CALM N/A  
MAUNA LOA* NOT AVBL  
MAUNA LOA 1* NOT AVBL  
PTA KIPUKA* N/A 66 61 82 N6 N/A  
PTA RANGE 17* N/A 72 68 88 NW7G15 N/A  
PTA WEST* N/A 70 63 78 NW8 N/A  
NENE CABIN* N/A 57 57 100 E8G16 N/A  
AHUMOA* N/A 61 60 97 SW3 N/A  
PTA PORTABLE* NOT AVBL  
PUU MALI* N/A 63 57 82 NE8 N/A  

 
 
HIC003-170500-  
NORTHWEST ISLANDS-  
 
CITY SKY/WX TMP DP RH WIND PRES REMARKS
 
MIDWAY ISLAND N/A 84 73 70 E13 30.06S HAZE HX 91  
MIDWAY NOS* N/A 81 N/A N/A MISG 30.04S  
FRENCH FRIGATE NOT AVBL  

 
 
PHZ110>124-180-170500-  
BUOY REPORTS  
 
STATION/POSITION TIME TEMP WIND PRES WAVE SWELL
 
AIR SEA DIR/SP/G HT/PER HT/DIR  
(UTC) (F) (DEG/KT/KT) (MB) (FT/S) (FT/D)  
BUOY 51101 0420 82 80/ 16/ 21 1016.0  
BUOY 51100 NOT AVBL  
BUOY 51002 0420 1012.6  
BUOY 51003 NOT AVBL  
BUOY 51004 0340 81 N/A 8/ 8  
WAIMEA BAY# 0412 79 N/A 5/ 8  
MOKAPU POINT# 0400 82 N/A 6/ 7 2/120  
LANAI# 0330 84 N/A 5/14 3/190  
BARBERS PT# 0400 82 N/A 3/14 2/200  
PAUWELA# NOT AVBL  
HILO# 0416 81 N/A 5/ 7 2/120  
KANEOHE BAY# 0424 81 N/A 6/ 7  
KANEOHE BAY 2# NOT AVBL  
HANALEI# 0400 N/A 5/ 8  
KAHULUI HARBOR 0354 78 60/ 17/ 24 1013.0R  
HONOLULU HARBOR 0354 83 83 90/ 5/ 10 1013.6R  
PEARL HARBOR# 0400 82 N/A 3/14 2/160  
KILO NALU NOT AVBL  
HILO HARBOR 0400 79 81 90/ 4/ 4 1014.1  
MOKUOLOE 0336 81 84 90/ 11/ 16 1014.3R  
NAWILIWILI 0354 81 70/ 15/ 18 1014.4R  
WHOTS BUOY NOT AVBL  
BUOY 51028 NOT AVBL  

 
   
.....................KEY.....................................
 
 
SKY/WX - SKY CONDITIONS/PRESENT WEATHER  
TMP - TEMPERATURE IN FAHRENHEIT  
DWPT - DEWPOINT IN FAHRENHEIT  
RH - RELATIVE HUMIDITY IN PERCENT  
WIND - DIRECTION AND SPEED /MPH FOR ISLANDS...KTS FOR BUOYS/  
PRES - MEAN SEA LEVEL PRESSURE IN INCHES OF HG  
VSB - VISIBILITY IN MILES  
HX - HEAT INDEX  
WCI - WIND CHILL INDEX  
VRB - VARIABLE WIND DIRECTION  
N/A - NOT AVAILABLE  
 
 
CLICK HERE TO GO TO PREVIOUS BULLETINS.

The Nexlab HI Page Main Text Page